User: anonymous   Login
Location: Downe
(51.3167°N, 0.0500°E)
Time: 23:36:07
(UTC+00:00)
Language:

CZ-4B R/B - Orbit

View from above orbital plane
View from above orbital plane
View from above satellite
View from above satellite

Ground track
Ground track

The orbit data is extracted from the following two-line orbital elements,

1 27432U 02024C   20023.51952757 -.00000029 +00000-0 +90905-5 0  9994
2 27432 099.0835 023.2655 0049742 227.3190 241.4117 14.14088615913020
Epoch (UTC): 23 January 2020 12:28:07
Eccentricity: 0.0049742
inclination: 99.0835°
perigee height: 809 km
apogee height: 881 km
right ascension of ascending node: 23.2655°
argument of perigee: 227.3190°
revolutions per day: 14.14088615
mean anomaly at epoch: 241.4117°
orbit number at epoch: 91302

The dashed part of the orbit path shows where the satellite is in the earth's shadow,  

DLR